Weather History for Winner, SD

Change the Weather History Date:

Thursday, February 7, 2013

  Actual Average Record
Temperature  
Mean Temperature 31 °F 26 °F  
Max Temperature 36 °F 36 °F 47 °F (2009)
Min Temperature 25 °F 15 °F -7 °F (2014)
Degree Days  
Heating Degree Days 34 39  
Month to date heating degree days 207 278  
Since 1 July heating degree days 3847 4233  
Cooling Degree Days 0 0  
Month to date cooling degree days 0 0  
Year to date cooling degree days 0 0  
Moisture  
Dew Point 26 °F    
Average Humidity 88    
Maximum Humidity 100    
Minimum Humidity 75    
Precipitation  
Precipitation T in 0.01 in 0.00 in (2014)
Month to date precipitation T 0.12  
Year to date precipitation T 0.37  
Sea Level Pressure  
Sea Level Pressure 30.17 in    
Wind  
Wind Speed 6 mph (NNE)    
Max Wind Speed 13 mph    
Max Gust Speed 15 mph    
Visibility 4 miles    
Events Fog    
T = Trace of Precipitation, MM = Missing Value Source: NWS Daily Summary

Daily Weather History Graph

Daily Weather History Graph

Search for Another Location

Airport:

Trip Planner

Search our weather history database for the weather conditions in past years. The results will help you decide how hot, cold, wet, or windy it might be!

Date:

Astronomy

Feb. 07, 2013 Rise Set
Actual Time 7:47 AM CST 5:59 PM CST
Civil Twilight 7:18 AM CST 6:29 PM CST
Nautical Twilight 6:44 AM CST 7:03 PM CST
Astronomical Twilight 6:11 AM CST 7:36 PM CST
Moon 5:31 AM CST (2/7) 3:23 PM CST (2/7)
Length of Visible Light 11h 11m
Length of Day
10h 11m
Waning Crescent, 9% of the Moon is Illuminated
Feb 7
Waning Crescent
Feb 10
New
Feb 17
First Quarter
Feb 25
Full
Mar 4
Last Quarter

Hourly Weather History & Observations

Time (CST) Temp. Windchill Dew Point Humidity Pressure Visibility Wind Dir Wind Speed Gust Speed Precip Events Conditions
12:53 AM 35.1 °F 31.0 °F 28.0 °F 76% 30.05 in 10.0 mi West 4.6 mph - N/A   Mostly Cloudy
1:53 AM 34.0 °F 31.0 °F 28.0 °F 79% 30.06 in 10.0 mi West 3.5 mph - N/A   Clear
2:53 AM 33.1 °F 26.1 °F 27.0 °F 78% 30.07 in 10.0 mi NW 8.1 mph - N/A   Clear
3:53 AM 30.0 °F 21.7 °F 25.0 °F 82% 30.09 in 10.0 mi NW 9.2 mph - N/A   Clear
4:53 AM 27.0 °F 19.5 °F 25.0 °F 92% 30.11 in 10.0 mi North 6.9 mph - N/A   Clear
5:05 AM 26.6 °F 16.8 °F 24.8 °F 93% 30.07 in 7.0 mi North 10.4 mph - N/A   Scattered Clouds
5:08 AM 28.4 °F 18.5 °F 26.6 °F 93% 30.07 in 1.5 mi North 11.5 mph - N/A   Mostly Cloudy
5:16 AM 28.4 °F 18.5 °F 26.6 °F 93% 30.07 in 0.2 mi North 11.5 mph - 0.00 in Fog Light Freezing Fog
5:53 AM 26.1 °F 16.8 °F 25.0 °F 96% 30.13 in 0.2 mi North 9.2 mph - 0.00 in Fog Light Freezing Fog
6:53 AM 25.0 °F 16.3 °F 24.1 °F 96% 30.14 in 0.2 mi NNW 8.1 mph - 0.00 in Fog Light Freezing Fog
7:53 AM 25.0 °F 18.1 °F 24.1 °F 96% 30.15 in 0.2 mi North 5.8 mph - 0.00 in Fog Light Freezing Fog
8:53 AM 25.0 °F 17.1 °F 24.1 °F 96% 30.19 in 0.2 mi North 6.9 mph - 0.00 in Fog Light Freezing Fog
10:53 AM 28.0 °F - 26.1 °F 92% 30.22 in 0.2 mi Calm Calm - 0.00 in Fog Light Freezing Fog
11:53 AM 28.9 °F 25.2 °F 27.0 °F 92% 30.22 in 0.5 mi NNW 3.5 mph - 0.00 in Fog Light Freezing Fog
12:34 PM 28.4 °F 23.3 °F 26.6 °F 93% 30.15 in 1.8 mi NW 4.6 mph - N/A   Overcast
12:53 PM 30.0 °F 25.2 °F 27.0 °F 88% 30.21 in 1.0 mi North 4.6 mph - N/A   Overcast
1:16 PM 30.2 °F 24.3 °F 28.4 °F 93% 30.14 in 2.5 mi North 5.8 mph - N/A   Overcast
1:40 PM 30.2 °F 25.4 °F 26.6 °F 86% 30.14 in 4.0 mi North 4.6 mph - N/A   Overcast
1:53 PM 30.0 °F 26.5 °F 27.0 °F 88% 30.21 in 4.0 mi NNW 3.5 mph - N/A   Overcast
2:53 PM 30.0 °F - 28.0 °F 92% 30.20 in 6.0 mi Calm Calm - N/A   Overcast
3:53 PM 30.0 °F - 28.0 °F 92% 30.20 in 6.0 mi Calm Calm - N/A   Overcast
4:09 PM 30.2 °F - 26.6 °F 86% 30.13 in 7.0 mi Calm Calm - N/A   Overcast
4:53 PM 30.0 °F 24.1 °F 27.0 °F 88% 30.22 in 7.0 mi NE 5.8 mph - N/A   Overcast
5:53 PM 28.9 °F 22.8 °F 26.1 °F 89% 30.23 in 7.0 mi East 5.8 mph - N/A   Overcast
6:53 PM 28.0 °F 20.8 °F 26.1 °F 92% 30.25 in 9.0 mi East 6.9 mph - N/A   Overcast
7:43 PM 26.6 °F 19.1 °F 24.8 °F 93% 30.17 in 9.0 mi ESE 6.9 mph - N/A   Overcast
7:53 PM 27.0 °F 20.5 °F 25.0 °F 92% 30.25 in 9.0 mi East 5.8 mph - N/A   Overcast
8:53 PM 26.1 °F 16.8 °F 24.1 °F 92% 30.25 in 7.0 mi SE 9.2 mph - N/A   Overcast
9:42 PM 26.6 °F 15.7 °F 24.8 °F 93% 30.17 in 2.0 mi SE 12.7 mph - N/A   Overcast
9:51 PM 24.8 °F 14.6 °F 24.8 °F 100% 30.17 in 1.0 mi ESE 10.4 mph - N/A   Overcast
9:53 PM 26.1 °F 16.2 °F 24.1 °F 92% 30.25 in 1.0 mi ESE 10.4 mph - N/A   Overcast
10:31 PM 26.6 °F 16.8 °F 24.8 °F 93% 30.17 in 0.8 mi ESE 10.4 mph - N/A   Mist
10:40 PM 26.6 °F 18.2 °F 24.8 °F 93% 30.17 in 1.0 mi SSE 8.1 mph - N/A   Overcast
10:53 PM 25.0 °F 14.8 °F 24.1 °F 96% 30.25 in 1.0 mi SE 10.4 mph - N/A   Overcast
11:40 PM 24.8 °F 14.0 °F 24.8 °F 100% 30.17 in 0.8 mi SE 11.5 mph - N/A   Overcast
11:53 PM 25.0 °F 14.2 °F 24.1 °F 96% 30.25 in 1.0 mi SE 11.5 mph - N/A   Overcast